﻿測定場所 (Monitoring sites),日付 (Measurement date),時間 (Measurement time),線量率 最大値 (max) μGy/h,線量率 最小値 (min) μGy/h,線量率 平均値 (average) μGy/h,
江戸川 (Edogawa),2014-07-06,23:01～24:00,0.0764,0.0692,0.0725,
江戸川 (Edogawa),2014-07-06,22:01～23:00,0.0777,0.0690,0.0726,
江戸川 (Edogawa),2014-07-06,21:01～22:00,0.0778,0.0702,0.0729,
江戸川 (Edogawa),2014-07-06,20:01～21:00,0.0770,0.0700,0.0728,
江戸川 (Edogawa),2014-07-06,19:01～20:00,0.0835,0.0691,0.0728,
江戸川 (Edogawa),2014-07-06,18:01～19:00,0.0786,0.0697,0.0725,
江戸川 (Edogawa),2014-07-06,17:01～18:00,0.0780,0.0681,0.0723,
江戸川 (Edogawa),2014-07-06,16:01～17:00,0.0754,0.0694,0.0723,
江戸川 (Edogawa),2014-07-06,15:01～16:00,0.0766,0.0681,0.0726,
江戸川 (Edogawa),2014-07-06,14:01～15:00,0.0764,0.0690,0.0721,
江戸川 (Edogawa),2014-07-06,13:01～14:00,0.0758,0.0665,0.0720,
江戸川 (Edogawa),2014-07-06,12:01～13:00,0.0766,0.0688,0.0723,
江戸川 (Edogawa),2014-07-06,11:01～12:00,0.0751,0.0684,0.0720,
江戸川 (Edogawa),2014-07-06,10:01～11:00,0.0747,0.0685,0.0713,
江戸川 (Edogawa),2014-07-06,09:01～10:00,0.0776,0.0673,0.0718,
江戸川 (Edogawa),2014-07-06,08:01～09:00,0.0752,0.0682,0.0715,
江戸川 (Edogawa),2014-07-06,07:01～08:00,0.0746,0.0676,0.0719,
江戸川 (Edogawa),2014-07-06,06:01～07:00,0.0791,0.0676,0.0716,
江戸川 (Edogawa),2014-07-06,05:01～06:00,0.0759,0.0673,0.0712,
江戸川 (Edogawa),2014-07-06,04:01～05:00,0.0747,0.0681,0.0717,
江戸川 (Edogawa),2014-07-06,03:01～04:00,0.0752,0.0680,0.0715,
江戸川 (Edogawa),2014-07-06,02:01～03:00,0.0748,0.0669,0.0714,
江戸川 (Edogawa),2014-07-06,01:01～02:00,0.0778,0.0689,0.0716,
江戸川 (Edogawa),2014-07-06,00:01～01:00,0.0753,0.0687,0.0719,
江戸川 (Edogawa),2014-07-05,23:01～24:00,0.0759,0.0675,0.0717,
江戸川 (Edogawa),2014-07-05,22:01～23:00,0.0762,0.0684,0.0719,
江戸川 (Edogawa),2014-07-05,21:01～22:00,0.0748,0.0681,0.0715,
江戸川 (Edogawa),2014-07-05,20:01～21:00,0.0747,0.0680,0.0718,
江戸川 (Edogawa),2014-07-05,19:01～20:00,0.0748,0.0694,0.0718,
江戸川 (Edogawa),2014-07-05,18:01～19:00,0.0746,0.0678,0.0713,
江戸川 (Edogawa),2014-07-05,17:01～18:00,0.0751,0.0673,0.0717,
江戸川 (Edogawa),2014-07-05,16:01～17:00,0.0788,0.0672,0.0717,
江戸川 (Edogawa),2014-07-05,15:01～16:00,0.0758,0.0688,0.0721,
江戸川 (Edogawa),2014-07-05,14:01～15:00,0.0751,0.0689,0.0720,
江戸川 (Edogawa),2014-07-05,13:01～14:00,0.0750,0.0680,0.0714,
江戸川 (Edogawa),2014-07-05,12:01～13:00,0.0749,0.0685,0.0719,
江戸川 (Edogawa),2014-07-05,11:01～12:00,0.0760,0.0677,0.0719,
江戸川 (Edogawa),2014-07-05,10:01～11:00,0.0748,0.0684,0.0717,
江戸川 (Edogawa),2014-07-05,09:01～10:00,0.0767,0.0665,0.0713,
江戸川 (Edogawa),2014-07-05,08:01～09:00,0.0757,0.0675,0.0716,
江戸川 (Edogawa),2014-07-05,07:01～08:00,0.0755,0.0692,0.0722,
江戸川 (Edogawa),2014-07-05,06:01～07:00,0.0758,0.0693,0.0721,
江戸川 (Edogawa),2014-07-05,05:01～06:00,0.0791,0.0699,0.0731,
江戸川 (Edogawa),2014-07-05,04:01～05:00,0.0780,0.0690,0.0718,
江戸川 (Edogawa),2014-07-05,03:01～04:00,0.0740,0.0683,0.0716,
江戸川 (Edogawa),2014-07-05,02:01～03:00,0.0751,0.0675,0.0716,
江戸川 (Edogawa),2014-07-05,01:01～02:00,0.0779,0.0683,0.0716,
江戸川 (Edogawa),2014-07-05,00:01～01:00,0.0749,0.0687,0.0718,
江戸川 (Edogawa),2014-07-04,23:01～24:00,0.0765,0.0679,0.0717,
江戸川 (Edogawa),2014-07-04,22:01～23:00,0.0758,0.0689,0.0718,
江戸川 (Edogawa),2014-07-04,21:01～22:00,0.0768,0.0693,0.0723,
江戸川 (Edogawa),2014-07-04,20:01～21:00,0.0748,0.0675,0.0720,
江戸川 (Edogawa),2014-07-04,19:01～20:00,0.0753,0.0690,0.0719,
江戸川 (Edogawa),2014-07-04,18:01～19:00,0.0754,0.0683,0.0716,
江戸川 (Edogawa),2014-07-04,17:01～18:00,0.0772,0.0684,0.0718,
江戸川 (Edogawa),2014-07-04,16:01～17:00,0.0741,0.0682,0.0716,
江戸川 (Edogawa),2014-07-04,15:01～16:00,0.0767,0.0677,0.0713,
江戸川 (Edogawa),2014-07-04,14:01～15:00,0.0745,0.0694,0.0716,
江戸川 (Edogawa),2014-07-04,13:01～14:00,0.0748,0.0664,0.0717,
江戸川 (Edogawa),2014-07-04,12:01～13:00,0.0751,0.0671,0.0710,
江戸川 (Edogawa),2014-07-04,11:01～12:00,0.0744,0.0689,0.0718,
江戸川 (Edogawa),2014-07-04,10:01～11:00,0.0774,0.0690,0.0724,
江戸川 (Edogawa),2014-07-04,09:01～10:00,0.0783,0.0709,0.0736,
江戸川 (Edogawa),2014-07-04,08:01～09:00,0.0790,0.0710,0.0745,
江戸川 (Edogawa),2014-07-04,07:01～08:00,0.0792,0.0708,0.0748,
江戸川 (Edogawa),2014-07-04,06:01～07:00,0.0764,0.0692,0.0728,
江戸川 (Edogawa),2014-07-04,05:01～06:00,0.0777,0.0679,0.0732,
江戸川 (Edogawa),2014-07-04,04:01～05:00,0.0808,0.0710,0.0753,
江戸川 (Edogawa),2014-07-04,03:01～04:00,0.0844,0.0712,0.0751,
江戸川 (Edogawa),2014-07-04,02:01～03:00,0.0826,0.0711,0.0753,
江戸川 (Edogawa),2014-07-04,01:01～02:00,0.0822,0.0723,0.0768,
江戸川 (Edogawa),2014-07-04,00:01～01:00,0.0855,0.0732,0.0785,
江戸川 (Edogawa),2014-07-03,23:01～24:00,0.0859,0.0761,0.0805,
江戸川 (Edogawa),2014-07-03,22:01～23:00,0.0867,0.0736,0.0787,
江戸川 (Edogawa),2014-07-03,21:01～22:00,0.0842,0.0720,0.0766,
江戸川 (Edogawa),2014-07-03,20:01～21:00,0.0816,0.0714,0.0760,
江戸川 (Edogawa),2014-07-03,19:01～20:00,0.0821,0.0712,0.0749,
江戸川 (Edogawa),2014-07-03,18:01～19:00,0.0785,0.0701,0.0739,
江戸川 (Edogawa),2014-07-03,17:01～18:00,0.0788,0.0693,0.0731,
江戸川 (Edogawa),2014-07-03,16:01～17:00,0.0792,0.0701,0.0733,
江戸川 (Edogawa),2014-07-03,15:01～16:00,0.0777,0.0696,0.0733,
江戸川 (Edogawa),2014-07-03,14:01～15:00,0.0817,0.0688,0.0734,
江戸川 (Edogawa),2014-07-03,13:01～14:00,0.0786,0.0706,0.0734,
江戸川 (Edogawa),2014-07-03,12:01～13:00,0.0780,0.0704,0.0736,
江戸川 (Edogawa),2014-07-03,11:01～12:00,0.0794,0.0698,0.0739,
江戸川 (Edogawa),2014-07-03,10:01～11:00,0.0777,0.0700,0.0729,
江戸川 (Edogawa),2014-07-03,09:01～10:00,0.0768,0.0688,0.0731,
江戸川 (Edogawa),2014-07-03,08:01～09:00,0.0763,0.0710,0.0733,
江戸川 (Edogawa),2014-07-03,07:01～08:00,0.0800,0.0688,0.0737,
江戸川 (Edogawa),2014-07-03,06:01～07:00,0.0768,0.0688,0.0729,
江戸川 (Edogawa),2014-07-03,05:01～06:00,0.0768,0.0700,0.0729,
江戸川 (Edogawa),2014-07-03,04:01～05:00,0.0774,0.0690,0.0731,
江戸川 (Edogawa),2014-07-03,03:01～04:00,0.0793,0.0695,0.0732,
江戸川 (Edogawa),2014-07-03,02:01～03:00,0.0804,0.0710,0.0734,
江戸川 (Edogawa),2014-07-03,01:01～02:00,0.0795,0.0698,0.0730,
江戸川 (Edogawa),2014-07-03,00:01～01:00,0.0791,0.0698,0.0731,
江戸川 (Edogawa),2014-07-02,23:01～24:00,0.0777,0.0697,0.0731,
江戸川 (Edogawa),2014-07-02,22:01～23:00,0.0768,0.0685,0.0732,
江戸川 (Edogawa),2014-07-02,21:01～22:00,0.0771,0.0699,0.0729,
江戸川 (Edogawa),2014-07-02,20:01～21:00,0.0769,0.0693,0.0728,
江戸川 (Edogawa),2014-07-02,19:01～20:00,0.0784,0.0693,0.0726,
江戸川 (Edogawa),2014-07-02,18:01～19:00,0.0797,0.0685,0.0731,
江戸川 (Edogawa),2014-07-02,17:01～18:00,0.0809,0.0693,0.0732,
江戸川 (Edogawa),2014-07-02,16:01～17:00,0.0765,0.0694,0.0729,
江戸川 (Edogawa),2014-07-02,15:01～16:00,0.0780,0.0692,0.0728,
江戸川 (Edogawa),2014-07-02,14:01～15:00,0.0761,0.0699,0.0726,
江戸川 (Edogawa),2014-07-02,13:01～14:00,0.0786,0.0691,0.0727,
江戸川 (Edogawa),2014-07-02,12:01～13:00,0.0790,0.0683,0.0726,
江戸川 (Edogawa),2014-07-02,11:01～12:00,0.0764,0.0690,0.0724,
江戸川 (Edogawa),2014-07-02,10:01～11:00,0.0769,0.0692,0.0725,
江戸川 (Edogawa),2014-07-02,09:01～10:00,0.0753,0.0679,0.0720,
江戸川 (Edogawa),2014-07-02,08:01～09:00,0.0781,0.0692,0.0720,
江戸川 (Edogawa),2014-07-02,07:01～08:00,0.0781,0.0675,0.0721,
江戸川 (Edogawa),2014-07-02,06:01～07:00,0.0745,0.0680,0.0718,
江戸川 (Edogawa),2014-07-02,05:01～06:00,0.0774,0.0693,0.0721,
江戸川 (Edogawa),2014-07-02,04:01～05:00,0.0784,0.0676,0.0722,
江戸川 (Edogawa),2014-07-02,03:01～04:00,0.0750,0.0680,0.0720,
江戸川 (Edogawa),2014-07-02,02:01～03:00,0.0760,0.0681,0.0723,
江戸川 (Edogawa),2014-07-02,01:01～02:00,0.0800,0.0679,0.0725,
江戸川 (Edogawa),2014-07-02,00:01～01:00,0.0762,0.0691,0.0721,
江戸川 (Edogawa),2014-07-01,23:01～24:00,0.0766,0.0688,0.0720,
江戸川 (Edogawa),2014-07-01,22:01～23:00,0.0751,0.0688,0.0722,
江戸川 (Edogawa),2014-07-01,21:01～22:00,0.0771,0.0681,0.0721,
江戸川 (Edogawa),2014-07-01,20:01～21:00,0.0756,0.0690,0.0717,
江戸川 (Edogawa),2014-07-01,19:01～20:00,0.0755,0.0684,0.0720,
江戸川 (Edogawa),2014-07-01,18:01～19:00,0.0775,0.0681,0.0721,
江戸川 (Edogawa),2014-07-01,17:01～18:00,0.0756,0.0668,0.0720,
江戸川 (Edogawa),2014-07-01,16:01～17:00,0.0763,0.0688,0.0719,
江戸川 (Edogawa),2014-07-01,15:01～16:00,0.0764,0.0688,0.0719,
江戸川 (Edogawa),2014-07-01,14:01～15:00,0.0748,0.0682,0.0721,
江戸川 (Edogawa),2014-07-01,13:01～14:00,0.0762,0.0679,0.0722,
江戸川 (Edogawa),2014-07-01,12:01～13:00,0.0779,0.0685,0.0725,
江戸川 (Edogawa),2014-07-01,11:01～12:00,0.0765,0.0678,0.0721,
江戸川 (Edogawa),2014-07-01,10:01～11:00,0.0742,0.0691,0.0715,
江戸川 (Edogawa),2014-07-01,09:01～10:00,0.0764,0.0686,0.0718,
江戸川 (Edogawa),2014-07-01,08:01～09:00,0.0740,0.0689,0.0716,
江戸川 (Edogawa),2014-07-01,07:01～08:00,0.0749,0.0685,0.0717,
江戸川 (Edogawa),2014-07-01,06:01～07:00,0.0774,0.0687,0.0727,
江戸川 (Edogawa),2014-07-01,05:01～06:00,0.0802,0.0713,0.0755,
江戸川 (Edogawa),2014-07-01,04:01～05:00,0.0841,0.0720,0.0774,
江戸川 (Edogawa),2014-07-01,03:01～04:00,0.0782,0.0686,0.0730,
江戸川 (Edogawa),2014-07-01,02:01～03:00,0.0742,0.0683,0.0718,
江戸川 (Edogawa),2014-07-01,01:01～02:00,0.0745,0.0682,0.0719,
江戸川 (Edogawa),2014-07-01,00:01～01:00,0.0762,0.0691,0.0725,
江戸川 (Edogawa),2014-06-30,23:01～24:00,0.0770,0.0696,0.0719,
江戸川 (Edogawa),2014-06-30,22:01～23:00,0.0776,0.0670,0.0719,
江戸川 (Edogawa),2014-06-30,21:01～22:00,0.0778,0.0686,0.0722,
江戸川 (Edogawa),2014-06-30,20:01～21:00,0.0751,0.0678,0.0718,
江戸川 (Edogawa),2014-06-30,19:01～20:00,0.0781,0.0683,0.0722,
江戸川 (Edogawa),2014-06-30,18:01～19:00,0.0764,0.0688,0.0722,
江戸川 (Edogawa),2014-06-30,17:01～18:00,0.0744,0.0671,0.0715,
江戸川 (Edogawa),2014-06-30,16:01～17:00,0.0756,0.0681,0.0717,
江戸川 (Edogawa),2014-06-30,15:01～16:00,0.0763,0.0695,0.0723,
江戸川 (Edogawa),2014-06-30,14:01～15:00,0.0746,0.0685,0.0716,
江戸川 (Edogawa),2014-06-30,13:01～14:00,0.0754,0.0682,0.0718,
江戸川 (Edogawa),2014-06-30,12:01～13:00,0.0744,0.0671,0.0713,
江戸川 (Edogawa),2014-06-30,11:01～12:00,0.0751,0.0672,0.0717,
江戸川 (Edogawa),2014-06-30,10:01～11:00,0.0781,0.0662,0.0717,
江戸川 (Edogawa),2014-06-30,09:01～10:00,0.0742,0.0667,0.0712,
江戸川 (Edogawa),2014-06-30,08:01～09:00,0.0743,0.0669,0.0711,
江戸川 (Edogawa),2014-06-30,07:01～08:00,0.0740,0.0675,0.0712,
江戸川 (Edogawa),2014-06-30,06:01～07:00,0.0733,0.0672,0.0708,
江戸川 (Edogawa),2014-06-30,05:01～06:00,0.0735,0.0683,0.0712,
江戸川 (Edogawa),2014-06-30,04:01～05:00,0.0747,0.0684,0.0711,
江戸川 (Edogawa),2014-06-30,03:01～04:00,0.0738,0.0680,0.0710,
江戸川 (Edogawa),2014-06-30,02:01～03:00,0.0742,0.0677,0.0709,
江戸川 (Edogawa),2014-06-30,01:01～02:00,0.0740,0.0680,0.0710,
江戸川 (Edogawa),2014-06-30,00:01～01:00,0.0744,0.0665,0.0710,
